RH
97 86 73 54 44 42 38 37 29 31 30 24 26 30 31 37 37 45 73 78 64 72 78 88 84 85 78 76 78 77 75 77 79 78 77 79 81 92 91 95 96 88 92 92 90 94 95 94 93
100 82 66 42 43 46 36 30 34 27 31 33 37 39 39 45 57 74 73 76 69 73 76 79 82 82 81 74 76 74 77 77 77 76 80 80 85 91 95 97 97 96 96 96 95 93 94 94 94
97 71 47 42 38 38 32 33 26 31 41 39 43 43 46 61 62 66 70 73 71 75 77 89 81 80 80 76 76 74 74 72 67 77 79 83 84 88 95 97 96 90 94 96 95 95 94 93 93
88 62 48 43 37 30 26 28 25 43 47 45 41 52 63 71 66 70 80 73 71 78 80 91 80 79 78 75 76 73 71 70 76 77 77 83 86 86 90 92 87 87 91 96 95 95 95 95 92
80 47 37 36 32 28 27 23 25 35 36 43 44 61 74 78 77 87 78 72 74 79 84 92 81 79 75 75 75 74 74 75 75 74 78 76 70 89 87 89 84 87 92 97 94 93 94 94 95
74 41 36 36 31 30 26 22 26 28 38 46 50 55 71 77 89 91 86 79 79 81 87 91 82 75 75 74 73 72 70 68 68 73 92 94 90 79 81 84 86 89 96 96 93 93 94 94 96
52 44 34 30 28 31 27 22 27 32 41 47 44 58 80 80 95 94 92 91 89 85 84 86 86 80 74 72 70 68 71 81 82 85 87 92 92 88 85 87 92 94 96 96 95 94 94 95 80
51 36 31 27 29 31 23 28 30 32 41 48 45 57 84 88 98 98 100 91 89 82 78 82 82 78 83 68 67 66 73 78 81 81 84 89 91 78 81 89 93 90 78 75 94 93 94 83 80
48 44 34 29 29 24 27 37 47 49 54 53 51 46 54 91 98 100 99 90 89 84 82 82 77 80 72 74 71 72 78 84 90 92 89 90 88 90 89 92 92 83 75 74 87 90 72 74 78
66 47 32 23 21 21 28 24 52 50 57 64 63 59 76 96 91 95 90 93 92 90 88 82 81 86 89 89 93 92 88 95 98 92 87 86 85 88 91 74 81 86 75 64 56 61 70 70 72
68 50 28 26 19 18 28 31 45 39 52 48 59 77 84 93 88 86 84 88 96 97 84 82 85 91 90 94 95 98 94 91 92 92 88 85 86 82 78 72 80 90 86 78 73 72 69 71 72
68 44 29 23 22 21 31 40 48 40 38 36 50 70 84 88 85 81 81 93 100 98 91 87 91 88 90 96 88 88 86 87 84 88 86 78 80 78 72 69 70 82 79 74 71 71 74 78 77
58 45 29 23 24 21 35 41 37 46 50 45 58 70 79 79 79 73 84 98 99 99 93 90 89 88 92 89 89 85 85 80 84 87 89 80 77 76 71 68 64 66 71 69 70 70 71 72 76
51 44 29 24 23 32 29 43 40 59 56 59 65 73 78 75 77 72 83 98 100 95 89 92 90 92 92 92 90 85 81 80 79 82 81 78 76 75 73 72 67 61 63 68 68 69 71 72 72
46 44 30 25 24 37 30 55 46 62 61 67 73 78 77 74 75 73 80 95 99 86 88 88 89 89 87 88 89 86 82 78 77 78 78 75 74 72 72 72 66 63 60 64 73 75 73 72 74
57 36 36 27 28 46 22 26 67 72 67 75 78 82 78 74 70 72 81 91 94 86 86 87 88 88 85 85 83 82 80 75 74 74 74 76 76 74 72 69 68 58 59 63 67 68 68 67 69
61 53 33 32 26 46 31 24 68 75 64 76 79 79 77 74 70 75 84 94 89 84 84 88 86 85 85 84 82 83 83 76 74 74 74 77 78 76 70 68 65 60 58 58 64 67 64 65 68
96 44 30 28 28 40 34 44 75 83 67 73 79 75 77 77 74 76 81 92 90 82 84 84 83 82 84 84 83 84 86 83 76 75 77 81 81 79 71 70 65 62 60 58 60 63 64 62 65
49 36 30 25 35 31 30 56 72 82 79 78 78 81 78 77 75 82 85 91 89 84 83 83 82 82 83 81 78 78 79 82 79 78 82 80 80 80 76 73 71 69 65 63 59 58 64 67 66
40 34 30 32 45 40 54 60 64 72 75 64 72 80 77 76 81 87 92 92 90 85 84 83 81 82 81 77 75 74 75 79 78 82 84 83 80 80 79 79 79 76 72 69 65 65 61 62 67
36 31 33 33 52 50 48 76 79 73 70 69 70 72 73 74 81 85 92 94 88 85 84 80 78 81 78 74 78 82 80 83 85 84 84 84 82 82 82 84 81 80 75 72 70 69 64 61 67
40 27 26 47 32 42 34 37 58 75 80 75 78 81 73 72 68 74 82 90 89 81 80 78 77 78 79 80 81 79 78 74 77 79 73 78 78 82 81 83 84 82 78 76 76 73 70 66 64
34 31 30 32 27 31 30 30 30 67 87 83 74 79 77 70 71 69 74 80 86 82 81 79 86 84 81 82 80 79 76 71 72 59 60 75 79 80 78 79 87 85 82 80 78 76 75 71 65
34 27 30 34 34 53 33 27 38 58 50 62 69 76 76 71 67 66 70 81 88 84 84 82 82 83 73 74 81 80 78 80 70 62 56 66 78 81 76 76 86 85 83 82 79 81 80 76 73
29 29 67 57 77 50 38 28 22 42 48 46 72 79 74 66 67 74 79 85 88 87 88 86 89 86 84 77 73 75 76 84 73 62 58 65 74 67 71 73 75 78 77 78 81 82 84 82 78
28 29 55 76 68 45 32 36 22 30 44 53 62 59 61 68 64 71 77 82 84 89 94 87 85 87 85 75 73 68 67 75 67 66 65 63 60 60 61 64 68 68 71 73 76 82 83 86 86
32 36 29 37 33 37 29 25 22 44 49 57 69 73 73 72 72 76 77 77 85 86 87 85 83 81 84 81 72 70 66 68 64 60 61 59 58 60 61 62 65 69 71 73 75 77 78 87 88
29 26 38 33 53 44 32 29 27 35 38 52 66 72 70 68 67 65 66 70 76 83 90 89 86 80 78 83 80 69 64 72 65 59 61 62 61 63 64 65 66 69 72 74 76 78 77 84 89
31 30 32 27 34 43 32 29 18 21 27 44 52 59 61 65 64 63 64 66 70 74 81 93 96 94 87 87 84 86 79 78 77 77 72 70 65 74 64 65 67 72 73 74 77 78 78 81 85
38 25 24 32 38 39 29 24 46 43 41 44 51 56 57 59 60 59 62 64 68 72 77 83 92 96 99 98 98 98 96 94 94 90 82 77 79 78 70 73 80 84 86 84 83 84 83 89 87
Wind_Speed
5 14 12 7 7 6 16 9 2 8 5 4 5 5 6 5 1 2 6 6 16 20 18 17 17 16 17 17 19 19 19 18 18 18 18 19 21 23 22 24 24 25 23 22 21 21 21 21 23
6 17 9 3 8 14 15 14 11 7 3 8 6 5 5 4 3 6 12 13 20 19 18 16 18 16 17 18 18 19 19 18 18 20 16 19 20 21 22 23 24 23 22 21 21 20 21 21 22
11 14 6 6 11 18 17 16 15 6 9 7 6 1 2 5 6 14 8 19 19 18 17 15 18 18 19 21 21 20 20 19 19 18 19 18 18 19 21 22 23 23 22 21 20 20 21 20 21
12 7 3 10 21 20 20 13 14 11 4 5 3 7 5 3 11 8 19 20 19 18 16 17 18 20 21 20 20 19 19 19 20 20 22 21 17 17 18 22 22 22 23 21 20 19 21 21 21
11 6 11 13 22 20 14 11 16 14 9 9 8 6 4 3 7 17 20 20 20 18 17 17 20 22 23 22 21 22 22 21 20 20 22 27 18 16 19 20 20 22 22 21 19 20 21 21 20
6 6 13 19 22 16 15 12 13 14 9 9 7 8 4 7 14 18 19 19 19 19 18 19 22 23 23 24 23 23 22 20 16 17 20 23 23 21 20 20 20 21 21 20 19 19 19 20 20
15 11 18 21 20 19 16 11 13 13 11 9 10 5 5 11 17 18 18 18 19 19 20 22 23 24 25 25 22 18 18 20 21 20 19 21 21 22 21 20 19 20 20 20 19 19 18 19 21
13 11 21 20 19 21 13 11 5 11 9 6 5 6 7 14 20 18 17 18 20 20 21 23 24 23 22 24 18 16 18 20 19 20 19 20 20 20 19 18 17 19 19 19 19 18 18 20 21
4 11 18 22 24 21 13 9 4 2 12 4 5 4 15 26 23 19 19 20 20 21 21 24 23 19 17 15 19 17 16 17 19 21 22 18 16 16 14 16 16 17 17 18 18 17 19 20 20
10 17 26 16 19 19 15 17 12 9 12 5 7 9 26 25 25 20 21 21 21 22 22 23 20 16 16 16 17 17 17 13 13 13 14 14 14 14 15 17 16 15 16 16 16 18 19 15 14
13 20 15 14 16 17 18 13 9 11 13 13 18 20 24 24 23 23 21 21 22 21 22 21 18 17 17 17 17 16 14 14 12 12 12 13 15 14 13 13 13 13 14 13 13 12 10 10 11
19 17 12 15 14 17 18 14 10 16 4 9 18 21 22 19 20 23 22 20 20 20 21 20 18 18 18 17 17 15 14 13 12 12 13 13 12 12 11 10 11 10 9 11 10 9 11 11 11
19 20 10 9 10 14 16 14 12 11 3 14 20 21 21 18 20 23 21 19 21 23 22 21 19 19 19 17 16 14 13 12 12 13 12 12 12 12 11 10 8 9 9 9 9 10 10 10 10
19 17 10 6 12 11 15 9 9 4 10 18 20 20 19 19 22 21 21 20 21 23 24 21 20 18 18 16 15 14 13 13 12 11 11 11 11 12 10 10 8 8 8 8 8 9 10 9 9
23 18 12 8 14 8 14 9 9 10 15 17 18 17 18 18 23 22 23 21 20 24 23 21 19 18 17 16 15 13 12 12 12 11 11 11 11 10 10 9 8 8 8 9 9 9 9 8 8
23 20 18 8 14 6 16 19 6 12 17 18 18 15 16 17 22 21 20 20 21 23 23 20 18 18 16 14 14 13 13 11 11 10 10 10 9 8 8 8 8 9 9 8 9 8 9 8 8
21 21 24 8 7 9 14 16 11 12 15 17 17 17 16 16 18 20 20 19 21 22 23 21 20 18 16 15 15 13 13 11 11 11 10 9 8 7 7 8 8 9 8 8 9 8 8 8 7
14 26 23 19 10 12 13 9 13 11 15 17 17 17 16 16 17 21 22 20 18 21 22 21 19 18 16 16 15 12 11 10 11 11 10 9 8 9 8 8 9 8 8 8 8 9 8 8 8
27 28 23 15 4 16 14 11 13 11 10 12 13 14 15 16 18 18 20 20 20 21 22 22 21 19 17 17 17 15 14 12 11 11 11 10 10 10 10 9 9 9 9 9 10 9 9 8 8
22 29 23 10 6 7 9 10 9 9 12 14 16 16 16 16 15 18 18 19 21 23 23 22 21 20 18 17 17 14 14 13 12 11 11 12 11 12 11 10 9 10 9 10 12 11 10 6 11
16 26 22 19 11 7 16 6 7 8 9 9 12 14 15 19 17 16 19 21 23 24 25 24 24 23 20 18 17 13 13 11 11 12 11 13 12 13 12 11 9 10 10 11 12 12 11 8 11
19 15 18 16 18 11 6 9 7 8 10 13 12 13 16 17 18 17 22 24 26 29 29 27 26 23 21 21 19 18 17 15 14 15 14 12 14 13 14 12 11 10 11 11 12 12 12 10 10
11 11 15 14 15 10 8 4 11 10 9 12 16 17 15 14 15 20 24 24 25 28 27 26 26 27 23 23 20 20 18 16 14 16 16 15 14 15 15 15 14 13 12 12 12 13 14 14 12
11 11 14 9 7 7 3 5 10 10 11 13 13 12 10 16 17 18 21 19 20 23 25 25 26 31 31 25 24 23 21 19 20 18 18 15 13 14 16 18 17 15 15 14 14 14 15 15 14
8 15 3 3 3 9 1 4 3 11 9 10 15 15 17 15 16 15 14 18 19 22 22 23 25 30 30 29 30 29 27 22 27 23 22 20 15 18 19 20 21 21 21 18 16 16 16 17 17
18 13 7 7 8 10 2 8 5 1 1 1 6 16 8 12 13 14 18 20 22 23 23 25 26 28 31 36 36 34 29 23 26 28 25 23 26 25 21 23 25 25 24 24 23 20 19 17 18
10 11 7 6 3 5 9 4 4 3 2 3 5 10 9 5 5 2 3 12 18 20 23 26 26 26 27 34 37 35 34 32 29 28 30 29 28 28 28 27 26 27 28 29 27 28 27 21 20
9 11 8 5 8 7 8 16 9 11 13 10 8 9 6 4 4 4 5 4 2 2 5 16 21 24 26 27 33 35 33 30 33 30 31 32 33 32 31 32 30 29 30 31 32 31 32 27 22
7 9 2 5 3 8 6 9 14 14 16 16 12 7 5 4 3 3 4 6 6 4 3 2 5 13 16 16 20 26 28 28 24 24 28 32 33 28 32 33 29 32 32 32 34 35 35 34 31
2 7 10 9 7 2 5 5 1 1 5 8 9 6 5 4 3 3 4 5 7 8 7 3 1 4 8 11 13 13 16 17 20 23 27 28 27 27 30 27 24 24 27 29 34 36 37 30 30
Wind_Direction
169 169 162 200 196 227 219 198 241 183 200 180 148 188 202 16 283 15 140 142 151 149 152 149 150 148 147 140 136 131 126 127 127 125 125 124 123 118 113 111 109 106 103 100 100 99 98 97 99
196 152 157 206 228 202 209 200 194 173 117 143 147 158 178 124 75 108 144 148 149 148 149 150 153 148 145 140 133 129 128 127 127 120 113 122 120 116 116 115 111 107 104 102 101 100 100 99 101
163 179 180 201 219 214 206 197 197 133 143 166 144 348 113 109 99 141 140 147 148 147 147 151 152 148 141 137 134 133 133 133 129 124 128 118 112 113 114 115 112 112 105 101 101 100 100 101 102
146 185 219 220 207 218 215 184 195 153 165 187 181 126 109 21 136 136 145 147 148 147 145 150 148 144 141 136 136 129 127 130 126 125 124 111 102 103 109 118 116 110 104 101 102 102 103 103 106
166 174 203 215 216 208 223 187 187 183 164 170 183 135 94 103 127 137 147 149 149 146 143 140 143 140 137 133 130 126 125 124 125 123 118 112 110 121 126 119 113 107 103 102 103 105 106 107 107
156 196 207 207 205 206 208 192 179 195 172 149 155 130 104 144 140 145 149 150 150 146 141 138 141 139 137 134 131 130 129 126 122 125 123 125 130 131 126 121 117 109 105 104 104 105 106 108 109
192 187 205 205 197 196 192 182 181 184 175 171 145 115 108 142 146 145 145 149 149 144 140 136 133 134 130 126 125 128 130 125 128 122 120 121 121 122 121 124 118 112 108 105 106 108 110 111 114
219 200 196 202 198 202 176 166 200 177 166 112 180 157 166 154 146 143 142 148 142 141 143 138 135 133 132 130 124 132 134 126 128 132 131 125 124 118 114 118 118 115 108 105 107 112 115 114 116
218 202 199 193 193 191 166 160 130 120 144 158 150 140 139 149 145 144 142 143 144 144 145 143 143 145 153 148 135 145 138 127 129 125 123 111 112 106 108 123 122 116 111 109 111 117 118 119 120
182 207 200 187 191 184 177 196 150 156 153 139 135 128 140 148 151 151 152 146 146 146 149 149 150 150 137 139 134 147 139 134 127 121 113 109 114 116 118 123 126 120 118 112 112 118 114 110 116
204 207 190 182 194 175 170 186 171 168 187 181 173 152 150 151 157 154 157 153 151 147 150 154 152 145 145 143 145 145 142 138 130 123 117 121 117 118 120 119 117 119 114 113 114 108 112 118 120
182 204 180 176 181 177 171 152 165 184 134 169 151 156 150 155 159 161 160 153 153 152 154 155 153 147 146 145 148 150 141 139 139 136 134 134 131 131 130 128 125 132 131 128 120 113 112 110 113
187 190 196 175 169 185 151 173 169 171 117 144 146 156 157 157 163 163 158 150 153 152 155 154 152 151 148 149 149 150 148 144 141 144 145 146 145 138 133 129 134 133 137 137 128 126 120 117 114
189 174 172 164 167 163 170 162 162 144 141 143 152 162 159 160 161 162 160 154 153 157 156 153 154 155 151 153 153 152 150 147 146 150 150 148 148 143 140 132 135 136 147 145 144 139 133 125 121
170 169 172 168 171 158 154 139 188 144 149 146 156 156 157 163 164 168 164 164 154 161 155 155 154 153 152 154 153 152 151 152 152 151 150 148 151 149 146 139 144 154 151 149 143 141 134 127 124
164 167 173 159 169 162 189 191 149 156 153 156 159 160 158 163 168 167 168 166 166 159 161 159 158 157 154 157 155 152 152 154 153 156 154 152 152 153 153 151 156 157 151 151 155 152 144 140 141
170 167 177 153 190 159 201 182 150 172 168 164 167 166 162 162 166 168 167 166 173 166 165 166 165 164 158 160 157 155 157 155 161 163 163 164 163 164 167 166 162 163 156 152 161 159 158 155 156
159 163 174 167 173 182 176 138 148 174 179 177 172 171 167 166 169 171 169 168 178 175 173 172 168 171 166 164 166 158 162 165 171 172 177 184 189 183 174 171 169 166 167 166 170 171 167 170 167
165 161 167 153 163 171 178 147 157 168 185 174 178 170 170 170 167 169 170 173 180 181 179 178 175 175 173 173 176 173 175 175 178 183 185 189 188 187 184 182 180 184 190 191 185 179 174 166 169
175 166 166 119 126 133 155 125 129 173 199 190 180 176 173 166 165 168 171 172 185 184 184 183 183 182 186 183 182 184 184 187 187 187 196 195 191 192 190 196 196 197 198 195 191 188 178 189 187
167 165 158 152 135 103 141 121 168 186 206 203 194 183 179 174 172 172 175 180 190 192 191 189 190 189 192 188 184 183 183 180 186 190 193 198 201 202 203 205 201 201 200 204 202 201 199 197 200
159 161 165 146 164 167 229 171 188 176 201 204 193 180 180 187 186 181 186 191 194 199 197 194 194 194 198 194 194 193 197 196 201 196 199 204 208 212 215 214 212 207 207 212 212 212 213 211 207
141 162 143 163 166 150 190 196 157 167 200 200 190 176 189 195 194 193 196 197 198 202 201 200 198 195 196 200 203 205 208 210 203 205 211 207 213 217 224 223 220 217 216 216 216 218 214 219 224
151 129 110 123 161 196 158 256 172 180 192 183 175 172 188 203 203 203 201 194 201 206 205 204 203 207 207 209 208 213 217 216 209 206 208 212 214 218 225 227 226 227 226 225 228 227 227 226 228
182 149 78 137 63 195 169 220 38 175 188 193 170 170 197 203 204 203 198 195 202 205 207 208 208 207 208 208 207 210 216 221 226 213 204 209 207 225 232 230 231 232 233 233 231 232 234 232 231
170 157 166 153 179 195 110 219 185 59 359 192 190 193 174 192 198 199 208 207 207 203 207 211 213 214 212 214 213 217 217 222 230 226 226 228 230 236 242 245 241 241 242 243 241 239 239 235 236
175 189 136 105 43 168 197 209 222 166 201 198 141 148 128 106 57 126 185 213 216 215 215 212 213 217 215 216 217 219 223 224 231 237 232 237 238 238 241 244 244 243 243 243 243 243 244 240 240
214 147 163 148 159 196 196 219 213 196 199 190 180 165 136 104 65 24 12 6 329 277 258 226 223 221 218 218 218 221 226 226 228 230 234 236 243 246 245 245 245 243 243 244 242 245 247 242 241
156 191 168 154 198 194 188 222 215 209 199 187 172 158 144 130 92 46 21 11 360 357 17 196 229 237 235 235 228 224 221 225 228 230 240 244 247 244 247 247 246 243 242 243 243 243 246 245 243
12 194 207 201 188 209 215 219 359 73 145 164 154 145 124 118 119 85 56 41 37 20 17 38 201 208 221 225 227 237 238 239 240 238 237 239 238 242 247 241 235 236 238 241 244 246 245 237 239